Weather History for KRBG - June, 2013

Change the Weather History Date:

Friday, June 14, 2013

  Actual Average Record
Temperature  
Mean Temperature 62 °F 63 °F  
Max Temperature 79 °F 75 °F 92 °F (1961)
Min Temperature 45 °F 52 °F 37 °F (1976)
Degree Days  
Heating Degree Days 3 3  
Month to date heating degree days 20 54  
Since 1 June heating degree days 20 54  
Since 1 July heating degree days 3616 4037  
Cooling Degree Days 0 1  
Month to date cooling degree days 46 14  
Year to date cooling degree days 80 34  
Since 1 June cooling degree days 46 14  
Growing Degree Days 11 (Base 50)    
Moisture  
Dew Point 44 °F    
Average Humidity 57    
Maximum Humidity 93    
Minimum Humidity 21    
Precipitation  
Precipitation 0.00 in 0.04 in 1.14 in (1931)
Month to date precipitation 0.00 0.84  
Year to date precipitation 7.59 18.47  
Sea Level Pressure  
Sea Level Pressure 30.15 in    
Wind  
Wind Speed 4 mph (North)    
Max Wind Speed 17 mph    
Max Gust Speed 21 mph    
Visibility 10 miles    
Events      
T = Trace of Precipitation, MM = Missing Value Source: NWS Daily Summary

Daily Weather History Graph

Daily Weather History Graph

Search for Another Location

Airport or City:

Trip Planner

Search our weather history database for the weather conditions in past years. The results will help you decide how hot, cold, wet, or windy it might be!

Date:

Astronomy

Jun. 14, 2013 Rise Set
Actual Time 5:32 AM PDT 8:54 PM PDT
Civil Twilight 4:57 AM PDT 9:30 PM PDT
Nautical Twilight 4:11 AM PDT 10:16 PM PDT
Astronomical Twilight 3:13 AM PDT 11:14 PM PDT
Moon 11:21 AM PDT (6/14) No Moon Set
Length of Visible Light 16h 33m
Length of Day
15h 22m
Waxing Crescent, 31% of the Moon is Illuminated
Jun 14
Waxing Crescent
Jun 16
First Quarter
Jun 23
Full
Jun 29
Last Quarter
Jul 8
New

Hourly Weather History & Observations

Time (PDT) Temp. Dew Point Humidity Pressure Visibility Wind Dir Wind Speed Gust Speed Precip Events Conditions
12:53 AM 51.1 °F 45.0 °F 80% 30.31 in 10.0 mi Calm Calm - N/A   Clear
1:53 AM 50.0 °F 45.0 °F 83% 30.30 in 10.0 mi Calm Calm - N/A   Clear
2:53 AM 48.0 °F 45.0 °F 89% 30.28 in 10.0 mi Calm Calm - N/A   Clear
3:53 AM 46.9 °F 44.1 °F 90% 30.27 in 10.0 mi Calm Calm - N/A   Clear
4:53 AM 45.0 °F 42.1 °F 90% 30.26 in 10.0 mi Calm Calm - N/A   Clear
5:29 AM 44.6 °F 42.8 °F 93% 30.26 in 10.0 mi Calm Calm - N/A   Mostly Cloudy
5:53 AM 46.0 °F 43.0 °F 89% 30.26 in 10.0 mi Calm Calm - N/A   Overcast
6:26 AM 46.4 °F 44.6 °F 93% 30.26 in 10.0 mi Calm Calm - N/A   Overcast
6:33 AM 48.2 °F 44.6 °F 87% 30.26 in 10.0 mi Calm Calm - N/A   Overcast
6:42 AM 48.2 °F 44.6 °F 87% 30.26 in 10.0 mi Calm Calm - N/A   Overcast
6:53 AM 48.9 °F 44.1 °F 83% 30.26 in 10.0 mi Calm Calm - N/A   Overcast
7:53 AM 51.1 °F 45.0 °F 80% 30.25 in 10.0 mi Calm Calm - N/A   Overcast
8:53 AM 51.1 °F 46.0 °F 83% 30.24 in 10.0 mi WSW 3.5 mph - N/A   Overcast
9:42 AM 55.4 °F 46.4 °F 72% 30.23 in 10.0 mi Calm Calm - N/A   Scattered Clouds
9:53 AM 55.0 °F 46.9 °F 74% 30.22 in 10.0 mi Calm Calm - N/A   Clear
10:53 AM 60.1 °F 46.9 °F 62% 30.20 in 10.0 mi Calm Calm - N/A   Clear
11:53 AM 64.9 °F 45.0 °F 48% 30.16 in 10.0 mi Variable 6.9 mph - N/A   Clear
12:53 PM 69.1 °F 45.0 °F 42% 30.14 in 10.0 mi NE 8.1 mph - N/A   Clear
1:53 PM 72.0 °F 44.1 °F 37% 30.10 in 10.0 mi NNE 5.8 mph 16.1 mph N/A   Clear
2:53 PM 75.0 °F 44.1 °F 33% 30.06 in 10.0 mi NNE 12.7 mph 16.1 mph N/A   Clear
3:53 PM 77.0 °F 42.1 °F 29% 30.03 in 10.0 mi North 6.9 mph - N/A   Clear
4:53 PM 78.1 °F 39.9 °F 25% 30.01 in 10.0 mi North 9.2 mph 18.4 mph N/A   Clear
5:53 PM 78.1 °F 36.0 °F 22% 29.98 in 10.0 mi North 12.7 mph - N/A   Clear
6:53 PM 77.0 °F 39.9 °F 26% 29.97 in 10.0 mi NNE 15.0 mph - N/A   Clear
7:53 PM 73.9 °F 44.1 °F 34% 29.97 in 10.0 mi North 6.9 mph - N/A   Clear
8:53 PM 71.1 °F 46.0 °F 41% 29.97 in 10.0 mi North 5.8 mph - N/A   Clear
9:53 PM 68.0 °F 46.9 °F 47% 29.97 in 10.0 mi North 3.5 mph - N/A   Clear
10:53 PM 64.9 °F 48.9 °F 56% 29.97 in 10.0 mi NNW 3.5 mph - N/A   Clear
11:53 PM 63.0 °F 48.9 °F 60% 29.97 in 10.0 mi Calm Calm - N/A   Clear